Showing default

USA 77, 21809

Orbit data source: Space-Track

USA 77, 21809 is an American payload satellite in LEO that was launched on Fri, 08 Nov 1991 UTC via a TITAN 403A launch vehicle from the Air Force Western Test Range (AFWTR). Payload-class satellites include a variety of spacecraft equipped with specific instruments for various scientific and technological missions. These include communications satellites like Starlink; space stations such as the ISS; scientific satellites like the Hubble; Earth observation satellites from companies like Planet Labs, Umbra, and HawkEye 360; GPS; miniature CubeSats for education and research; and military/defense satellites.

Loading next visibility...
Identifier
21809, 1991-076E
Orbit
LEO
Country
Flag of USUS
Related business
Manufacturer
NRL
Mission
Defense Sigint
Bus & Motor
NOSS B SSU, Unknown motor
Mass
~400 kg wet, ~400 kg dry
Launch date (UTC)
1991-11-08 (35 years ago)
Launch vehicle
TITAN 403A
Launch site
Air Force Western Test Range (AFWTR)
Object type
Payload
Rocket body
Debris
Shape & HBR
Cyl, 0.5 m
Radar Cross Section
1.178 m², Large (>1 m²)

Expand to show TLE details & history
Last TLE update: 5 hours ago

TLE from 5 hours ago
0 USA 77
1 21809U 91076E   26150.16421823  .00003376  00000-0  27285-3 0  9990
2 21809  63.2953 205.9314 0899137  74.3099 295.5188 13.56334566101825
Epoch: 2026-05-30T03:56Z
TLE epoch observation values (Epoch: 2026-05-30T03:56:28.455Z)
Latitude
-0.00003°
Longitude
-100.87136°
Altitude
814.738 km
Speed
7.564 km/s
True Right ascension
13h 43m 43s
True Declination
0° 00' 00"
Sunlit
Object was in full shadow at epoch
Visualization orbit readout
Latitude
Unknown
Longitude
Unknown
Altitude
Unknown
Speed
Unknown
Apparent Right ascension
Unknown
Apparent Declination
Unknown
Sunlit
N/A
Visualization observer readout
Local Sidereal Time
18:52:55
Azimuth
Unknown
Elevation
Unknown
Doppler factor
Unknown
Orbital elements
Apogee altitude
1,715.564 km
Perigee altitude
380.166 km
Semi-major axis
7,426.002 km
Eccentricity
0.08991
Inclination
63.2953°
RAAN
205.9314°
Arg. of periapsis
74.3099°
True anomaly
285.79565°
Mean anomaly
295.5188°
Eccentric anomaly
290.69969°
Mean motion
3.39165 °/min
Orbital period
106.14 mins
BSTAR
0.00027285
Loading maneuver chart data...
Computing Atmospheric mass density...
Loading historical data...
Loading historical data...
Loading historical data...
Loading historical data...
Loading historical data...
Loading historical data...
Loading historical data...

Documentation

Showing up to 5 results
|